Wind_Speed
46 41 45 41 41 41 36 36 35 33 32 31 27 27 29 29 30 30 33 33 33 31 33 36 37 38 38 40 41 43 42 45 53 47 52 57 56 53 50 51 53 57 58
46 47 46 43 43 42 39 31 31 34 36 35 33 31 29 32 33 33 36 37 37 40 39 41 42 45 44 44 46 45 45 55 58 54 55 55 57 58 59 60 62 62 60
37 43 42 38 40 39 36 36 35 35 34 35 35 33 33 32 35 36 36 36 38 40 38 42 46 47 46 46 41 40 47 53 56 56 57 57 58 58 58 60 62 62 64
43 40 34 35 36 36 37 37 38 37 36 35 36 36 34 33 33 34 33 36 33 32 35 36 40 40 41 43 46 47 49 51 52 55 58 60 60 60 58 58 57 55 56
40 38 37 37 38 39 39 39 38 38 39 36 34 32 32 31 30 31 31 32 32 34 37 40 42 44 45 46 47 49 51 54 55 55 54 52 50 50 50 50 49 47 43
40 37 37 39 40 40 40 40 41 41 38 32 25 29 31 32 32 33 33 35 36 36 37 37 39 42 44 45 45 45 46 48 48 45 43 43 43 42 43 44 42 40 40
41 39 38 37 39 39 39 38 38 41 40 35 33 32 29 29 29 31 33 33 34 35 37 38 38 38 39 39 39 40 37 33 32 34 37 38 38 40 39 37 37 37 36
35 37 38 38 38 39 38 34 38 38 39 35 33 31 26 27 25 25 27 29 30 29 30 30 29 29 29 28 27 27 28 28 29 31 32 34 36 37 36 35 34 33 33
36 36 35 32 32 36 34 39 35 37 32 34 32 28 25 25 25 24 23 24 28 27 25 23 23 22 22 21 21 22 24 26 26 25 25 26 29 33 38 38 35 33 33
32 32 33 35 37 36 35 30 36 33 33 32 22 24 24 23 21 21 23 26 22 19 20 22 20 19 18 20 23 24 21 15 17 23 28 33 34 32 30 27 27 30 31
31 27 28 30 32 32 34 36 39 31 23 20 20 20 18 16 18 20 20 18 18 20 22 19 17 20 24 24 23 16 12 17 19 23 27 35 33 31 29 26 24 22 24
23 23 30 29 26 28 30 31 20 17 17 18 16 12 14 15 16 18 18 19 20 20 18 17 18 22 25 25 16 14 15 17 19 22 28 35 35 31 31 29 23 21 19
24 30 25 29 30 18 17 19 18 17 15 10 9 11 14 17 17 19 18 17 19 19 17 18 21 24 23 22 15 15 16 17 18 21 26 33 36 33 32 32 30 24 21
23 23 24 24 19 21 19 20 15 11 6 6 8 12 15 17 19 17 18 19 18 18 18 20 22 23 23 22 14 16 16 18 18 22 27 32 34 33 32 32 28 22 19
22 19 18 18 20 19 16 10 4 1 5 7 10 12 16 16 20 20 18 17 18 18 19 21 21 22 24 26 18 19 18 19 21 24 28 30 31 33 31 33 26 23 22
16 14 17 18 14 10 7 5 5 7 8 7 9 13 17 16 17 19 19 19 19 18 18 20 21 22 24 25 26 22 21 22 22 24 25 26 27 31 29 28 23 21 20
14 15 15 12 10 8 6 6 7 7 8 9 12 16 16 13 15 17 18 19 18 18 18 18 20 21 23 25 25 24 24 23 22 22 24 24 25 28 27 25 21 21 15
13 14 10 6 5 5 6 6 5 7 10 13 14 13 11 11 13 14 16 17 17 18 18 19 20 21 22 23 25 27 27 27 25 22 22 22 23 23 27 23 20 17 15
11 10 6 5 6 6 7 7 9 11 9 9 9 9 11 12 13 14 15 17 18 19 19 20 20 20 21 22 23 25 26 27 27 25 23 21 20 21 22 25 20 19 16
7 6 6 5 6 8 9 10 12 13 13 13 13 14 13 13 13 14 15 16 17 18 19 20 21 22 23 24 25 25 25 26 27 28 26 25 21 19 19 20 23 17 16
6 8 10 11 11 12 12 11 11 11 12 12 12 12 12 11 12 13 14 16 17 18 18 19 20 22 23 23 25 26 26 26 26 27 27 26 25 22 17 17 18 21 13
4 6 9 10 11 11 10 9 9 10 11 11 12 12 13 14 15 15 16 17 17 18 19 19 20 21 21 23 24 25 26 26 26 26 27 27 27 25 22 18 16 16 18
3 4 6 6 8 9 10 10 10 10 11 11 11 12 13 14 15 17 19 19 20 20 21 21 21 21 22 23 24 25 26 26 26 27 26 26 26 26 24 23 18 16 15
2 2 4 7 9 11 11 10 10 9 8 8 9 11 12 15 17 18 19 19 20 20 21 21 21 21 22 22 23 24 25 25 24 24 25 25 25 24 24 24 22 19 16
3 4 6 7 10 12 13 11 9 7 5 6 7 9 12 15 17 19 19 19 19 19 21 23 22 22 22 22 23 24 25 25 25 23 23 23 24 24 23 23 23 22 19
7 6 7 9 11 12 13 12 8 6 6 7 9 12 14 15 16 17 18 18 18 19 21 23 24 24 23 23 23 24 25 25 25 24 23 22 22 22 23 23 21 21 21
Wind_Direction
295 296 302 303 302 304 305 304 305 307 311 314 314 309 311 307 301 296 295 286 282 293 282 275 273 276 283 281 276 281 282 256 278 270 270 275 280 281 281 278 278 275 272
293 296 301 299 301 303 304 304 304 307 310 312 312 313 310 304 302 296 292 288 288 290 286 280 278 288 292 288 282 286 277 271 267 283 286 285 283 280 279 277 274 272 271
294 299 295 293 297 301 303 306 308 308 308 310 313 311 307 304 298 292 288 286 286 285 283 272 274 283 282 283 285 277 277 275 283 285 285 284 283 282 281 279 276 273 269
302 300 295 294 297 300 301 304 307 310 312 309 308 311 307 305 297 289 288 289 293 288 285 284 283 286 285 286 287 287 286 287 286 285 284 283 282 282 281 279 278 276 273
301 300 301 299 300 301 303 305 306 306 307 310 312 307 304 303 299 295 289 288 291 291 292 292 293 294 295 295 293 291 289 287 287 287 287 287 286 285 283 282 280 277 276
296 296 294 293 293 295 296 299 301 303 307 309 301 307 305 298 294 291 292 293 296 299 300 300 298 297 294 293 293 293 293 291 290 291 290 289 288 287 285 284 283 279 276
297 296 293 293 293 293 293 293 298 300 300 302 300 308 304 300 295 296 299 301 302 302 302 300 298 299 299 299 297 297 300 302 299 299 299 300 299 296 293 289 287 285 282
295 293 293 292 290 291 292 289 303 301 298 300 300 306 308 308 310 310 307 306 305 306 310 313 312 311 311 312 313 313 315 316 316 313 309 304 299 296 293 290 288 285 280
295 295 295 295 298 305 298 298 294 304 303 300 300 304 313 318 318 318 318 321 323 325 327 326 324 325 329 331 330 328 325 322 319 321 324 325 318 306 292 282 277 276 274
299 302 303 303 302 305 304 302 304 297 297 294 312 318 321 324 324 324 329 331 333 338 343 340 336 335 335 336 333 330 334 353 358 351 350 346 338 330 327 318 289 277 276
303 304 310 310 307 304 306 303 303 290 300 331 316 317 321 331 330 330 336 341 338 334 335 340 349 348 344 339 337 346 357 355 359 356 355 355 348 344 334 318 315 298 283
320 317 323 316 301 308 310 300 301 337 329 312 317 327 338 340 336 337 341 339 337 338 340 344 349 349 346 342 346 349 353 351 358 360 359 358 355 346 344 345 323 298 288
304 300 307 303 294 310 326 326 326 315 316 327 334 342 348 340 336 338 345 345 347 348 349 347 344 342 344 345 342 342 343 343 348 348 346 353 357 354 352 352 345 329 298
293 296 303 309 331 317 316 311 313 315 323 338 348 355 353 350 346 338 342 349 348 351 350 345 342 342 349 350 335 336 333 337 332 337 345 350 354 357 0 359 349 352 347
298 304 309 312 312 314 310 311 352 345 0 352 351 347 348 343 345 348 346 345 349 349 349 347 347 350 352 357 348 342 334 334 336 337 343 349 353 359 6 8 5 8 3
304 311 316 316 324 337 348 18 14 352 340 333 331 334 339 345 353 354 352 349 349 351 349 349 353 355 356 357 359 346 337 336 338 340 344 350 353 2 7 17 23 15 20
318 322 323 316 317 330 351 348 331 331 333 324 324 327 334 344 351 353 355 358 0 358 358 356 356 357 359 1 359 356 356 342 336 336 342 351 353 2 7 12 17 15 22
324 329 340 355 3 358 342 336 341 339 333 323 322 332 347 349 348 349 348 350 356 358 356 356 357 357 357 357 357 359 360 358 359 347 339 343 352 359 10 6 11 25 27
338 344 358 358 350 349 347 340 328 328 344 6 17 23 25 24 22 22 21 20 19 17 13 11 6 1 358 358 358 358 360 1 1 1 355 345 346 358 3 12 5 8 9
343 19 34 29 42 47 50 57 60 60 60 57 50 45 38 30 23 19 17 16 15 14 12 11 10 9 9 6 3 1 2 2 4 6 5 3 355 352 360 6 12 4 12
45 64 66 65 65 63 57 50 43 42 38 34 29 25 21 19 15 11 10 9 8 6 4 4 4 4 5 5 6 7 8 6 3 4 7 10 6 0 358 359 6 8 5
19 51 60 56 51 44 33 25 21 19 15 10 10 11 14 16 17 16 15 13 11 7 5 4 3 2 1 1 1 1 4 7 8 6 6 9 12 10 6 4 7 13 17
76 66 57 34 14 8 1 357 354 358 2 6 9 15 19 19 19 16 12 8 8 8 7 7 5 3 1 1 360 359 359 1 4 7 7 7 9 14 11 11 11 9 15
114 42 352 350 346 344 342 342 342 344 352 10 15 16 13 10 7 3 1 2 2 4 5 6 6 6 5 4 2 1 0 1 2 2 6 7 8 11 14 15 15 15 11
251 291 314 329 329 329 330 330 329 335 350 0 0 359 357 354 351 351 355 359 1 2 4 4 6 5 4 5 4 2 2 1 1 1 3 6 9 10 12 13 16 19 21
255 277 299 316 320 318 318 314 309 313 324 332 335 339 338 338 342 344 348 354 358 1 2 3 5 6 5 4 3 2 1 1 1 1 1 2 6 10 12 13 15 15 19
Height
5842 5839 5834 5829 5825 5822 5820 5817 5814 5811 5807 5802 5798 5794 5789 5784 5780 5777 5773 5770 5768 5764 5762 5760 5759 5756 5754 5754 5753 5750 5748 5744 5740 5736 5734 5731 5727 5725 5723 5721 5719 5718 5716
5833 5828 5823 5818 5815 5812 5807 5805 5804 5801 5796 5792 5788 5784 5780 5776 5772 5769 5764 5761 5757 5755 5753 5750 5747 5744 5742 5741 5738 5737 5733 5731 5727 5721 5718 5716 5713 5710 5707 5703 5700 5697 5695
5820 5817 5812 5808 5805 5801 5798 5795 5792 5789 5787 5782 5778 5775 5771 5768 5764 5760 5756 5751 5749 5745 5742 5739 5737 5735 5732 5729 5727 5724 5722 5718 5711 5707 5704 5700 5695 5691 5687 5684 5680 5676 5673
5809 5805 5802 5798 5794 5791 5788 5785 5781 5777 5774 5772 5769 5765 5762 5758 5754 5750 5746 5741 5737 5734 5732 5729 5726 5723 5720 5717 5714 5711 5707 5702 5698 5694 5688 5683 5678 5672 5668 5664 5660 5656 5653
5797 5794 5791 5788 5785 5782 5778 5774 5770 5767 5765 5762 5759 5756 5752 5748 5744 5740 5736 5733 5729 5725 5722 5718 5714 5711 5707 5703 5699 5694 5690 5685 5679 5674 5668 5664 5659 5654 5650 5646 5643 5639 5636
5788 5786 5783 5779 5775 5772 5769 5765 5762 5758 5755 5752 5749 5746 5743 5739 5735 5731 5727 5724 5720 5716 5712 5708 5704 5700 5696 5691 5685 5680 5674 5669 5664 5659 5654 5650 5645 5640 5637 5631 5628 5626 5624
5778 5775 5772 5769 5766 5763 5760 5757 5754 5750 5746 5742 5739 5735 5731 5728 5724 5720 5718 5714 5710 5705 5701 5696 5691 5686 5681 5676 5671 5666 5661 5656 5651 5647 5642 5636 5631 5626 5622 5618 5615 5612 5609
5769 5764 5761 5759 5755 5752 5749 5746 5743 5739 5735 5733 5730 5726 5722 5719 5715 5712 5709 5705 5701 5696 5691 5685 5680 5675 5670 5666 5662 5657 5653 5648 5643 5639 5634 5628 5623 5617 5611 5606 5602 5600 5598
5759 5755 5751 5748 5745 5742 5738 5736 5732 5729 5726 5724 5722 5718 5714 5711 5707 5703 5699 5696 5692 5687 5682 5677 5674 5669 5664 5660 5655 5651 5647 5643 5638 5633 5627 5620 5613 5606 5600 5595 5592 5590 5587
5749 5745 5743 5739 5737 5733 5730 5727 5724 5720 5717 5714 5712 5710 5707 5703 5701 5697 5693 5689 5686 5681 5677 5672 5668 5664 5661 5656 5651 5647 5642 5637 5632 5626 5620 5613 5605 5598 5592 5585 5580 5578 5576
5741 5738 5735 5731 5727 5725 5723 5719 5716 5712 5709 5708 5706 5704 5701 5699 5697 5693 5689 5686 5683 5678 5673 5669 5665 5660 5656 5651 5646 5642 5638 5633 5628 5623 5617 5610 5601 5593 5585 5579 5573 5570 5567
5733 5730 5727 5724 5722 5719 5716 5712 5709 5706 5706 5704 5702 5699 5697 5695 5693 5690 5685 5682 5678 5673 5668 5665 5661 5657 5652 5647 5642 5639 5635 5630 5626 5620 5615 5607 5599 5590 5582 5575 5568 5564 5561
5729 5726 5723 5720 5718 5713 5711 5708 5705 5704 5702 5700 5699 5697 5694 5692 5689 5686 5682 5679 5675 5669 5665 5662 5658 5654 5650 5644 5640 5636 5632 5628 5623 5618 5612 5605 5597 5588 5580 5572 5565 5558 5554
5722 5720 5718 5715 5711 5709 5706 5704 5702 5700 5699 5698 5697 5694 5692 5689 5686 5683 5678 5675 5672 5668 5664 5660 5657 5652 5647 5642 5638 5634 5629 5625 5621 5616 5610 5603 5595 5587 5578 5570 5562 5555 5550
5715 5714 5712 5710 5706 5704 5702 5701 5698 5699 5697 5696 5694 5693 5691 5687 5683 5679 5676 5673 5670 5666 5662 5659 5654 5650 5644 5639 5634 5630 5627 5623 5618 5613 5607 5601 5594 5586 5578 5570 5561 5557 5550
5710 5709 5708 5705 5702 5700 5699 5698 5697 5697 5696 5694 5693 5692 5689 5684 5681 5676 5673 5671 5667 5664 5660 5656 5652 5648 5643 5638 5633 5628 5624 5620 5615 5610 5605 5600 5593 5586 5578 5571 5565 5559 5554
5708 5706 5704 5702 5700 5698 5698 5697 5697 5695 5694 5693 5691 5689 5686 5682 5679 5676 5673 5669 5666 5663 5659 5655 5651 5647 5642 5637 5632 5628 5622 5617 5613 5609 5604 5598 5592 5586 5580 5573 5567 5562 5557
5706 5703 5701 5700 5698 5698 5697 5696 5695 5694 5692 5690 5688 5686 5683 5681 5678 5675 5672 5669 5666 5662 5658 5655 5651 5646 5642 5637 5632 5627 5621 5616 5611 5606 5601 5596 5592 5586 5581 5575 5570 5565 5561
5705 5702 5700 5699 5698 5698 5696 5695 5693 5691 5689 5687 5686 5684 5682 5680 5678 5676 5673 5669 5666 5663 5659 5655 5651 5646 5642 5637 5632 5627 5621 5616 5610 5605 5600 5594 5590 5586 5581 5576 5571 5566 5562
5704 5702 5701 5699 5698 5697 5696 5694 5693 5692 5690 5689 5687 5685 5683 5681 5679 5676 5674 5671 5667 5663 5659 5656 5651 5647 5642 5637 5632 5627 5621 5616 5610 5605 5599 5594 5589 5585 5581 5577 5572 5567 5563
5706 5704 5703 5702 5700 5699 5698 5697 5695 5694 5692 5690 5689 5687 5685 5683 5680 5677 5674 5670 5667 5663 5660 5656 5652 5647 5642 5637 5632 5627 5622 5616 5611 5605 5600 5594 5589 5584 5580 5577 5573 5568 5564
5707 5706 5704 5704 5703 5701 5700 5699 5697 5695 5693 5691 5689 5687 5685 5682 5679 5677 5674 5670 5667 5663 5660 5656 5651 5646 5642 5637 5632 5626 5621 5617 5612 5606 5600 5595 5590 5585 5580 5576 5573 5569 5565
5708 5707 5706 5705 5704 5702 5701 5699 5697 5695 5692 5690 5689 5687 5685 5683 5680 5677 5674 5671 5667 5664 5660 5655 5650 5645 5641 5636 5631 5626 5621 5617 5612 5607 5601 5596 5591 5586 5581 5577 5573 5570 5567
5707 5707 5706 5705 5704 5702 5700 5698 5696 5694 5692 5690 5689 5687 5685 5683 5681 5678 5674 5671 5667 5664 5659 5655 5651 5646 5641 5636 5631 5627 5622 5617 5612 5607 5602 5597 5592 5588 5583 5579 5575 5571 5568
5706 5706 5705 5703 5702 5701 5699 5697 5695 5693 5692 5690 5688 5687 5685 5682 5680 5677 5674 5671 5667 5663 5659 5654 5650 5646 5641 5637 5632 5627 5622 5617 5612 5607 5603 5599 5594 5590 5585 5581 5577 5573 5570
5704 5704 5703 5701 5700 5699 5697 5695 5694 5692 5690 5689 5687 5685 5683 5681 5678 5676 5673 5670 5666 5662 5658 5654 5649 5645 5641 5636 5632 5627 5622 5617 5612 5607 5603 5599 5595 5592 5587 5584 5580 5576 5572